Вернуться в каталог

STARLINK-32450

АктивенСвязьVLEO
NORAD 61969·PAYLOAD·🇺🇸 United States

Запущен Nov 14, 2024 с Cape Canaveral Space Force Station

Loading…

Ближайшие Пролёты (ближайшие 24 часа)

TLE

СвежийSource: CelesTrak SupGP

Эпоха: Sep 14, 2026, 20:43 UTC

1 61969C 24210L   26257.86368056  .00009648  00000+0  34933-3 0  2572
2 61969  43.0026 184.3523 0001420 267.2373 105.6683 15.27584141    19

Отслеживайте STARLINK-32450 в реальном времени с AllMySat

Download on the App Store